LFPG

Paris/Charles de Gaulle Airport

Airport
ICAO code
LFPG
IATA Code
CDG
Summary
ICAO Region
EUR
ICAO Territory
Location

Roissy-en-France, Ile-de-France

Serving
Paris
Elevation
392 ft
Coordinates
49° 0' 31" N , 2° 32' 37" E
KCC
Airport LOS
Parallel Runway Operation
Metar
LFPG 300930Z 29008KT 260V320 9999 BKN016 BKN073 16/12 Q1009 BECMG BKN012

Description

International airport serving Paris.

Climatology

Temperate Marine climate/Oceanic climate (Köppen climate classification Cfb). Moderately cool summer and comparatively warm winter. Prevailing south-westerly winds from the Atlantic Ocean.

Runways

Designator Length Width Surface Rops
08R/26L 2700 60 CON Yes/Yes
09L/27R 2700 60 ASP Yes/Yes
09R/27L 4200 45 ASP Yes/Yes
08L/26R 4215 45 ASP Yes/Yes

SKYbrary Partners:

Safety knowledge contributed by: